Tracking 28902 objects as of 19-May-2024
HD Live streaming from Space Station
objects crossing your sky now

FLOCK 4X 5

Track FLOCK 4X 5 now!
10-day predictions


NORAD ID: 51004
Int'l Code: 2022-002W
Perigee: 428.3 km
Apogee: 435.4 km
Inclination: 97.4 °
Period: 93.1 minutes
Semi major axis: 6802 km
RCS: Unknown
Launch date: January 13, 2022
Source: United States (US)
Launch site: AIR FORCE EASTERN TEST RANGE (AFETR)
Your satellite tracking list
Your tracking list is empty




NASA's NSSDC Master Catalog

Two Line Element Set (TLE):
1 51004U 22002W   24139.17342857  .00157108  00000-0  30260-2 0  9997
2 51004  97.3874 214.4162 0005241 122.5859 237.5897 15.47278969130388
Source of the keplerian elements: AFSPC